QPF
0.00 0.00 0.00 0.00 0.00 0.00 0.00 0.00 0.00 0.00 0.00 0.00 0.00 0.00 0.00 0.00 0.00 0.00 0.01 0.02 0.02 0.03 0.03 0.03 0.02 0.01 0.00 0.01 0.01 0.01 0.02 0.01 0.01 0.02 0.02 0.05 0.09 0.13 0.15 0.11 0.06 0.05 0.05 0.05
0.00 0.00 0.00 0.00 0.00 0.00 0.00 0.00 0.00 0.00 0.00 0.00 0.00 0.00 0.00 0.00 0.00 0.00 0.01 0.02 0.02 0.03 0.03 0.03 0.02 0.01 0.01 0.00 0.01 0.01 0.02 0.01 0.01 0.02 0.03 0.04 0.07 0.09 0.12 0.12 0.09 0.06 0.06 0.07
0.00 0.00 0.00 0.00 0.00 0.00 0.00 0.00 0.00 0.00 0.00 0.00 0.00 0.00 0.00 0.00 0.01 0.01 0.00 0.01 0.01 0.01 0.02 0.04 0.03 0.02 0.01 0.01 0.01 0.02 0.02 0.01 0.02 0.03 0.05 0.06 0.07 0.06 0.06 0.06 0.06 0.05 0.05 0.06
0.00 0.00 0.00 0.00 0.00 0.00 0.00 0.00 0.00 0.00 0.00 0.00 0.00 0.00 0.00 0.00 0.00 0.00 0.00 0.01 0.01 0.02 0.03 0.04 0.04 0.02 0.02 0.02 0.02 0.02 0.02 0.02 0.03 0.03 0.03 0.05 0.05 0.03 0.02 0.02 0.02 0.03 0.03 0.04
0.00 0.00 0.00 0.00 0.00 0.00 0.00 0.00 0.00 0.00 0.00 0.00 0.00 0.00 0.00 0.00 0.00 0.00 0.00 0.01 0.01 0.03 0.03 0.03 0.05 0.05 0.03 0.03 0.03 0.03 0.03 0.03 0.03 0.04 0.05 0.03 0.02 0.02 0.02 0.02 0.02 0.02 0.02 0.03
0.00 0.00 0.00 0.00 0.00 0.00 0.00 0.00 0.00 0.00 0.00 0.00 0.00 0.00 0.00 0.00 0.00 0.00 0.01 0.01 0.02 0.03 0.04 0.05 0.06 0.05 0.04 0.05 0.05 0.04 0.04 0.05 0.05 0.06 0.06 0.05 0.05 0.05 0.04 0.02 0.02 0.01 0.01 0.03
0.00 0.00 0.00 0.00 0.00 0.00 0.00 0.00 0.00 0.00 0.00 0.00 0.00 0.00 0.00 0.00 0.01 0.01 0.01 0.02 0.02 0.04 0.05 0.05 0.05 0.04 0.04 0.05 0.06 0.06 0.06 0.06 0.07 0.09 0.09 0.10 0.10 0.10 0.10 0.07 0.06 0.04 0.04 0.03
0.00 0.00 0.00 0.00 0.00 0.00 0.00 0.00 0.00 0.00 0.00 0.00 0.00 0.00 0.01 0.01 0.01 0.01 0.01 0.02 0.02 0.04 0.04 0.04 0.03 0.03 0.04 0.06 0.08 0.05 0.03 0.05 0.06 0.09 0.08 0.10 0.12 0.12 0.10 0.09 0.07 0.06 0.06 0.05
0.00 0.00 0.00 0.00 0.00 0.00 0.00 0.00 0.00 0.00 0.00 0.00 0.00 0.00 0.01 0.00 0.01 0.02 0.03 0.02 0.02 0.03 0.03 0.03 0.04 0.04 0.05 0.06 0.10 0.05 0.03 0.03 0.03 0.05 0.07 0.11 0.10 0.09 0.07 0.06 0.06 0.06 0.08 0.07
0.00 0.00 0.00 0.00 0.00 0.00 0.00 0.00 0.00 0.00 0.00 0.00 0.00 0.01 0.01 0.01 0.02 0.04 0.03 0.02 0.02 0.02 0.02 0.03 0.04 0.05 0.04 0.05 0.06 0.03 0.02 0.02 0.02 0.03 0.04 0.06 0.08 0.08 0.07 0.06 0.07 0.07 0.07 0.07
0.00 0.00 0.00 0.00 0.00 0.00 0.00 0.00 0.00 0.00 0.00 0.01 0.01 0.01 0.01 0.01 0.02 0.03 0.02 0.02 0.02 0.03 0.02 0.03 0.03 0.03 0.04 0.03 0.03 0.03 0.02 0.02 0.03 0.04 0.06 0.04 0.05 0.07 0.09 0.09 0.09 0.08 0.09 0.11
0.00 0.00 0.00 0.00 0.00 0.00 0.00 0.01 0.01 0.01 0.01 0.01 0.01 0.01 0.02 0.01 0.02 0.02 0.03 0.04 0.03 0.03 0.03 0.02 0.01 0.02 0.02 0.02 0.03 0.03 0.02 0.02 0.03 0.04 0.07 0.08 0.08 0.08 0.09 0.09 0.09 0.09 0.09 0.10
0.01 0.01 0.01 0.00 0.00 0.00 0.00 0.01 0.01 0.01 0.01 0.01 0.01 0.02 0.02 0.02 0.01 0.01 0.02 0.04 0.03 0.02 0.02 0.01 0.01 0.01 0.03 0.03 0.03 0.03 0.02 0.02 0.03 0.03 0.05 0.04 0.04 0.03 0.04 0.07 0.08 0.09 0.10 0.09
0.01 0.01 0.01 0.01 0.01 0.01 0.01 0.01 0.01 0.01 0.01 0.01 0.02 0.02 0.02 0.02 0.01 0.01 0.02 0.02 0.02 0.02 0.01 0.01 0.01 0.02 0.03 0.03 0.03 0.03 0.02 0.02 0.02 0.03 0.04 0.04 0.03 0.03 0.03 0.04 0.04 0.04 0.05 0.06
0.01 0.01 0.01 0.01 0.01 0.01 0.01 0.01 0.02 0.01 0.02 0.02 0.02 0.02 0.02 0.02 0.02 0.02 0.02 0.02 0.01 0.01 0.01 0.01 0.01 0.02 0.02 0.02 0.02 0.02 0.02 0.02 0.02 0.02 0.02 0.03 0.04 0.05 0.05 0.04 0.04 0.04 0.03 0.02
0.01 0.00 0.00 0.01 0.01 0.01 0.01 0.02 0.01 0.01 0.02 0.03 0.02 0.01 0.01 0.01 0.01 0.02 0.02 0.02 0.01 0.01 0.01 0.01 0.02 0.03 0.03 0.02 0.02 0.01 0.02 0.03 0.05 0.04 0.03 0.04 0.05 0.08 0.09 0.06 0.03 0.02 0.02 0.02
0.01 0.01 0.01 0.00 0.00 0.01 0.01 0.01 0.01 0.02 0.02 0.01 0.01 0.01 0.01 0.01 0.02 0.01 0.01 0.01 0.01 0.01 0.01 0.02 0.02 0.02 0.03 0.03 0.03 0.03 0.03 0.04 0.05 0.05 0.04 0.05 0.07 0.07 0.06 0.04 0.02 0.01 0.01 0.01
0.01 0.01 0.01 0.01 0.01 0.01 0.01 0.01 0.02 0.02 0.01 0.02 0.02 0.02 0.02 0.02 0.02 0.02 0.02 0.02 0.01 0.02 0.02 0.02 0.02 0.03 0.03 0.04 0.05 0.05 0.05 0.05 0.05 0.04 0.04 0.04 0.05 0.05 0.03 0.02 0.01 0.01 0.00 0.00
0.01 0.01 0.01 0.00 0.01 0.01 0.01 0.01 0.02 0.03 0.03 0.02 0.03 0.03 0.03 0.03 0.04 0.04 0.03 0.03 0.03 0.02 0.02 0.02 0.02 0.02 0.02 0.02 0.02 0.03 0.02 0.04 0.06 0.04 0.03 0.04 0.03 0.03 0.01 0.01 0.01 0.01 0.01 0.01
0.01 0.01 0.00 0.00 0.01 0.01 0.01 0.01 0.02 0.02 0.03 0.03 0.03 0.04 0.03 0.04 0.04 0.04 0.03 0.03 0.02 0.01 0.01 0.01 0.01 0.02 0.02 0.02 0.02 0.02 0.03 0.04 0.04 0.03 0.03 0.03 0.02 0.02 0.02 0.01 0.01 0.01 0.01 0.01
0.01 0.01 0.01 0.01 0.01 0.01 0.01 0.01 0.02 0.04 0.04 0.04 0.03 0.03 0.03 0.04 0.04 0.03 0.03 0.02 0.02 0.01 0.01 0.01 0.02 0.02 0.03 0.03 0.03 0.03 0.03 0.04 0.04 0.04 0.04 0.04 0.04 0.04 0.04 0.04 0.03 0.02 0.01 0.01
0.01 0.01 0.01 0.01 0.02 0.02 0.02 0.02 0.03 0.04 0.04 0.04 0.04 0.05 0.04 0.04 0.04 0.04 0.03 0.02 0.01 0.01 0.01 0.01 0.01 0.01 0.02 0.02 0.02 0.03 0.03 0.04 0.05 0.05 0.05 0.05 0.05 0.05 0.05 0.04 0.04 0.04 0.03 0.02
0.02 0.02 0.03 0.03 0.04 0.04 0.04 0.04 0.05 0.05 0.05 0.04 0.04 0.05 0.05 0.05 0.04 0.02 0.01 0.02 0.02 0.03 0.02 0.02 0.02 0.02 0.02 0.02 0.03 0.04 0.05 0.06 0.08 0.07 0.06 0.06 0.06 0.06 0.05 0.06 0.04 0.04 0.06 0.05
0.03 0.04 0.04 0.04 0.05 0.06 0.05 0.04 0.04 0.05 0.05 0.04 0.04 0.03 0.03 0.03 0.03 0.02 0.01 0.02 0.04 0.05 0.05 0.05 0.05 0.05 0.04 0.05 0.07 0.07 0.07 0.08 0.09 0.10 0.10 0.09 0.08 0.08 0.07 0.07 0.07 0.05 0.05 0.05
0.03 0.03 0.03 0.04 0.04 0.04 0.03 0.03 0.03 0.04 0.04 0.04 0.04 0.03 0.02 0.02 0.03 0.04 0.03 0.03 0.04 0.04 0.04 0.04 0.06 0.06 0.06 0.06 0.08 0.09 0.09 0.09 0.08 0.09 0.11 0.11 0.10 0.09 0.09 0.08 0.09 0.09 0.08 0.05
0.02 0.03 0.03 0.04 0.04 0.03 0.02 0.02 0.02 0.03 0.03 0.04 0.05 0.05 0.05 0.04 0.04 0.03 0.04 0.04 0.04 0.04 0.04 0.03 0.03 0.04 0.04 0.04 0.04 0.07 0.08 0.08 0.08 0.07 0.06 0.08 0.08 0.06 0.05 0.06 0.06 0.05 0.05 0.04
MSLP
1008.61 1009.48 1010.22 1010.80 1011.22 1011.51 1011.70 1011.82 1011.89 1011.90 1011.83 1011.65 1011.36 1010.97 1010.48 1009.97 1009.48 1009.07 1008.81 1008.72 1008.81 1009.05 1009.41 1009.85 1010.31 1010.76 1011.19 1011.59 1011.98 1012.37 1012.78 1013.21 1013.66 1014.10 1014.52 1014.89 1015.19 1015.42 1015.59 1015.72 1015.81 1015.91 1016.02 1016.16
1008.77 1009.54 1010.17 1010.65 1011.03 1011.33 1011.60 1011.85 1012.07 1012.23 1012.28 1012.17 1011.89 1011.42 1010.81 1010.11 1009.43 1008.84 1008.42 1008.22 1008.23 1008.46 1008.83 1009.30 1009.80 1010.28 1010.74 1011.16 1011.57 1011.97 1012.41 1012.87 1013.36 1013.86 1014.34 1014.76 1015.11 1015.36 1015.54 1015.65 1015.73 1015.82 1015.92 1016.07
1008.67 1009.34 1009.86 1010.29 1010.66 1011.03 1011.42 1011.84 1012.24 1012.56 1012.73 1012.69 1012.39 1011.83 1011.06 1010.17 1009.28 1008.50 1007.91 1007.58 1007.53 1007.73 1008.12 1008.63 1009.19 1009.73 1010.23 1010.69 1011.12 1011.56 1012.02 1012.52 1013.06 1013.60 1014.13 1014.59 1014.97 1015.26 1015.45 1015.57 1015.65 1015.73 1015.85 1016.03
1008.28 1008.85 1009.31 1009.72 1010.15 1010.63 1011.18 1011.80 1012.41 1012.91 1013.21 1013.22 1012.89 1012.23 1011.30 1010.22 1009.11 1008.12 1007.37 1006.92 1006.79 1006.96 1007.37 1007.92 1008.53 1009.13 1009.68 1010.19 1010.66 1011.13 1011.63 1012.16 1012.73 1013.32 1013.88 1014.39 1014.80 1015.11 1015.32 1015.46 1015.57 1015.68 1015.83 1016.03
1007.65 1008.13 1008.56 1008.99 1009.51 1010.15 1010.91 1011.76 1012.58 1013.27 1013.68 1013.74 1013.39 1012.64 1011.56 1010.28 1008.98 1007.80 1006.89 1006.32 1006.11 1006.25 1006.66 1007.23 1007.88 1008.53 1009.14 1009.68 1010.20 1010.70 1011.23 1011.79 1012.39 1013.01 1013.60 1014.14 1014.58 1014.92 1015.16 1015.34 1015.47 1015.63 1015.82 1016.07
1006.85 1007.26 1007.67 1008.17 1008.81 1009.63 1010.61 1011.68 1012.72 1013.57 1014.11 1014.22 1013.85 1013.02 1011.82 1010.40 1008.93 1007.60 1006.55 1005.87 1005.59 1005.68 1006.06 1006.64 1007.30 1007.97 1008.60 1009.17 1009.71 1010.24 1010.79 1011.39 1012.01 1012.66 1013.28 1013.84 1014.32 1014.69 1014.97 1015.18 1015.37 1015.57 1015.82 1016.11
1005.99 1006.34 1006.75 1007.32 1008.09 1009.09 1010.27 1011.54 1012.76 1013.76 1014.39 1014.55 1014.17 1013.30 1012.03 1010.51 1008.94 1007.51 1006.36 1005.60 1005.25 1005.28 1005.62 1006.16 1006.79 1007.45 1008.07 1008.64 1009.19 1009.73 1010.30 1010.91 1011.57 1012.23 1012.89 1013.48 1014.00 1014.41 1014.74 1015.00 1015.24 1015.49 1015.79 1016.14
1005.19 1005.48 1005.91 1006.53 1007.41 1008.55 1009.88 1011.29 1012.64 1013.73 1014.43 1014.62 1014.26 1013.38 1012.08 1010.54 1008.94 1007.48 1006.30 1005.49 1005.09 1005.05 1005.32 1005.79 1006.35 1006.94 1007.52 1008.06 1008.58 1009.12 1009.70 1010.34 1011.02 1011.73 1012.42 1013.07 1013.62 1014.09 1014.47 1014.78 1015.08 1015.38 1015.72 1016.11
1004.55 1004.79 1005.22 1005.89 1006.83 1008.04 1009.45 1010.92 1012.31 1013.44 1014.16 1014.36 1014.01 1013.16 1011.91 1010.41 1008.86 1007.44 1006.28 1005.47 1005.04 1004.94 1005.12 1005.48 1005.94 1006.42 1006.91 1007.39 1007.87 1008.39 1008.98 1009.65 1010.37 1011.13 1011.88 1012.58 1013.20 1013.73 1014.16 1014.53 1014.88 1015.23 1015.61 1016.03
1004.15 1004.35 1004.76 1005.42 1006.38 1007.59 1008.98 1010.43 1011.77 1012.85 1013.53 1013.72 1013.40 1012.60 1011.44 1010.06 1008.63 1007.32 1006.25 1005.47 1005.03 1004.88 1004.96 1005.19 1005.51 1005.85 1006.22 1006.60 1007.03 1007.53 1008.13 1008.83 1009.61 1010.44 1011.26 1012.04 1012.74 1013.34 1013.84 1014.27 1014.66 1015.05 1015.46 1015.90
1004.00 1004.16 1004.55 1005.18 1006.09 1007.23 1008.52 1009.85 1011.06 1012.02 1012.60 1012.75 1012.44 1011.72 1010.69 1009.47 1008.22 1007.08 1006.13 1005.44 1005.01 1004.80 1004.78 1004.87 1005.03 1005.22 1005.44 1005.72 1006.08 1006.56 1007.17 1007.91 1008.76 1009.67 1010.59 1011.47 1012.25 1012.93 1013.51 1014.00 1014.44 1014.86 1015.29 1015.74
1004.07 1004.22 1004.57 1005.15 1005.97 1006.98 1008.10 1009.24 1010.26 1011.04 1011.49 1011.57 1011.26 1010.62 1009.74 1008.71 1007.68 1006.73 1005.94 1005.34 1004.94 1004.69 1004.57 1004.51 1004.50 1004.53 1004.61 1004.78 1005.08 1005.53 1006.16 1006.95 1007.87 1008.88 1009.90 1010.87 1011.76 1012.53 1013.18 1013.74 1014.23 1014.69 1015.15 1015.60
1004.28 1004.43 1004.77 1005.29 1006.00 1006.85 1007.78 1008.68 1009.47 1010.04 1010.34 1010.33 1010.02 1009.46 1008.72 1007.89 1007.07 1006.33 1005.70 1005.21 1004.84 1004.56 1004.33 1004.14 1003.97 1003.84 1003.79 1003.85 1004.08 1004.51 1005.15 1005.99 1006.99 1008.08 1009.20 1010.28 1011.26 1012.12 1012.86 1013.49 1014.04 1014.54 1015.03 1015.50
1004.58 1004.74 1005.06 1005.53 1006.14 1006.84 1007.56 1008.23 1008.79 1009.15 1009.29 1009.19 1008.87 1008.38 1007.78 1007.13 1006.51 1005.95 1005.47 1005.08 1004.73 1004.42 1004.11 1003.79 1003.48 1003.21 1003.03 1003.00 1003.17 1003.58 1004.23 1005.11 1006.16 1007.33 1008.52 1009.68 1010.76 1011.72 1012.54 1013.25 1013.86 1014.42 1014.95 1015.45
1004.87 1005.07 1005.40 1005.83 1006.35 1006.91 1007.46 1007.93 1008.28 1008.46 1008.45 1008.27 1007.94 1007.50 1007.01 1006.52 1006.07 1005.66 1005.30 1004.98 1004.65 1004.30 1003.92 1003.50 1003.07 1002.69 1002.41 1002.30 1002.42 1002.80 1003.45 1004.34 1005.42 1006.63 1007.88 1009.10 1010.25 1011.28 1012.19 1012.98 1013.68 1014.31 1014.89 1015.44
1005.14 1005.37 1005.71 1006.12 1006.58 1007.03 1007.44 1007.76 1007.94 1007.98 1007.86 1007.62 1007.28 1006.89 1006.49 1006.11 1005.77 1005.47 1005.20 1004.92 1004.61 1004.23 1003.78 1003.28 1002.78 1002.31 1001.96 1001.79 1001.86 1002.21 1002.84 1003.72 1004.79 1006.00 1007.27 1008.53 1009.72 1010.81 1011.79 1012.67 1013.46 1014.17 1014.84 1015.45
1005.38 1005.63 1005.97 1006.36 1006.78 1007.16 1007.48 1007.68 1007.76 1007.69 1007.50 1007.22 1006.87 1006.51 1006.17 1005.86 1005.60 1005.37 1005.15 1004.89 1004.57 1004.17 1003.68 1003.14 1002.58 1002.07 1001.67 1001.47 1001.51 1001.82 1002.41 1003.25 1004.29 1005.47 1006.71 1007.96 1009.17 1010.31 1011.36 1012.32 1013.20 1014.01 1014.76 1015.46
1005.64 1005.88 1006.19 1006.56 1006.93 1007.26 1007.50 1007.63 1007.64 1007.51 1007.28 1006.97 1006.62 1006.28 1005.96 1005.69 1005.47 1005.26 1005.05 1004.80 1004.48 1004.07 1003.57 1003.01 1002.44 1001.93 1001.53 1001.32 1001.34 1001.61 1002.16 1002.94 1003.91 1005.03 1006.22 1007.44 1008.65 1009.80 1010.90 1011.93 1012.90 1013.80 1014.66 1015.44
1005.96 1006.14 1006.40 1006.71 1007.02 1007.28 1007.47 1007.54 1007.49 1007.33 1007.07 1006.74 1006.39 1006.04 1005.73 1005.47 1005.25 1005.04 1004.83 1004.58 1004.25 1003.85 1003.37 1002.84 1002.31 1001.83 1001.47 1001.28 1001.30 1001.55 1002.05 1002.77 1003.67 1004.71 1005.83 1007.00 1008.18 1009.34 1010.47 1011.55 1012.60 1013.60 1014.54 1015.41
1006.38 1006.46 1006.62 1006.83 1007.05 1007.23 1007.34 1007.36 1007.26 1007.05 1006.76 1006.41 1006.03 1005.67 1005.35 1005.07 1004.83 1004.60 1004.38 1004.12 1003.82 1003.45 1003.03 1002.57 1002.11 1001.72 1001.43 1001.29 1001.34 1001.59 1002.07 1002.73 1003.56 1004.52 1005.57 1006.68 1007.83 1008.98 1010.13 1011.27 1012.38 1013.45 1014.46 1015.41
1006.90 1006.84 1006.86 1006.93 1007.03 1007.10 1007.11 1007.04 1006.87 1006.60 1006.26 1005.87 1005.46 1005.06 1004.70 1004.38 1004.11 1003.86 1003.63 1003.39 1003.12 1002.82 1002.48 1002.13 1001.80 1001.52 1001.34 1001.29 1001.40 1001.69 1002.16 1002.79 1003.57 1004.47 1005.46 1006.53 1007.64 1008.78 1009.95 1011.11 1012.27 1013.39 1014.46 1015.46
1007.49 1007.27 1007.12 1007.03 1006.97 1006.89 1006.77 1006.58 1006.31 1005.96 1005.54 1005.08 1004.61 1004.15 1003.73 1003.36 1003.05 1002.79 1002.57 1002.36 1002.15 1001.94 1001.72 1001.51 1001.33 1001.21 1001.16 1001.24 1001.44 1001.79 1002.29 1002.92 1003.68 1004.55 1005.51 1006.54 1007.64 1008.78 1009.96 1011.14 1012.33 1013.48 1014.58 1015.60
1008.08 1007.69 1007.37 1007.10 1006.86 1006.61 1006.34 1006.01 1005.60 1005.13 1004.61 1004.05 1003.49 1002.95 1002.46 1002.03 1001.69 1001.41 1001.20 1001.04 1000.91 1000.82 1000.74 1000.70 1000.69 1000.74 1000.87 1001.09 1001.41 1001.85 1002.41 1003.08 1003.85 1004.72 1005.68 1006.72 1007.82 1008.97 1010.15 1011.36 1012.56 1013.72 1014.83 1015.85
1008.58 1008.04 1007.56 1007.12 1006.70 1006.28 1005.84 1005.34 1004.78 1004.17 1003.51 1002.83 1002.15 1001.51 1000.93 1000.45 1000.07 999.78 999.60 999.50 999.47 999.50 999.59 999.72 999.90 1000.14 1000.44 1000.82 1001.27 1001.82 1002.46 1003.20 1004.02 1004.93 1005.92 1006.98 1008.10 1009.28 1010.49 1011.71 1012.92 1014.09 1015.19 1016.20
1008.90 1008.26 1007.65 1007.07 1006.50 1005.91 1005.30 1004.64 1003.91 1003.14 1002.32 1001.49 1000.68 999.93 999.27 998.72 998.29 998.01 997.85 997.82 997.90 998.07 998.31 998.62 998.98 999.40 999.87 1000.41 1001.00 1001.67 1002.41 1003.23 1004.13 1005.10 1006.15 1007.26 1008.42 1009.64 1010.88 1012.12 1013.34 1014.51 1015.60 1016.59
1009.01 1008.30 1007.61 1006.93 1006.24 1005.52 1004.76 1003.93 1003.05 1002.11 1001.13 1000.15 999.21 998.33 997.57 996.95 996.49 996.21 996.09 996.12 996.30 996.59 996.98 997.45 997.98 998.56 999.19 999.87 1000.59 1001.38 1002.22 1003.14 1004.11 1005.16 1006.28 1007.45 1008.67 1009.94 1011.22 1012.48 1013.72 1014.89 1015.98 1016.95
Thickness
5746 5734 5728 5735 5739 5740 5739 5736 5733 5744 5759 5753 5748 5751 5762 5770 5771 5771 5773 5775 5776 5778 5781 5780 5778 5777 5774 5771 5768 5764 5760 5756 5752 5748 5744 5740 5737 5736 5734 5733 5733 5731 5729 5727
5729 5727 5742 5745 5743 5739 5735 5730 5730 5741 5753 5750 5743 5746 5758 5763 5765 5768 5769 5771 5772 5773 5774 5774 5773 5772 5769 5767 5765 5761 5758 5754 5751 5747 5743 5740 5737 5734 5732 5730 5729 5729 5726 5724
5725 5736 5746 5741 5737 5733 5732 5728 5730 5732 5741 5745 5739 5735 5747 5758 5762 5765 5766 5768 5769 5769 5768 5768 5768 5766 5765 5764 5762 5760 5756 5752 5748 5744 5739 5736 5732 5730 5728 5727 5726 5726 5724 5722
5726 5738 5741 5736 5733 5733 5723 5740 5737 5734 5723 5716 5726 5709 5733 5745 5750 5755 5758 5761 5762 5764 5764 5763 5763 5761 5761 5761 5759 5756 5752 5748 5744 5741 5737 5733 5729 5726 5725 5724 5723 5722 5720 5719
5724 5734 5733 5730 5735 5736 5734 5742 5736 5731 5719 5710 5713 5705 5718 5735 5738 5746 5752 5756 5758 5760 5760 5759 5758 5757 5757 5756 5753 5751 5748 5744 5741 5739 5735 5731 5728 5726 5723 5720 5718 5717 5716 5715
5727 5737 5738 5738 5744 5742 5740 5732 5723 5710 5702 5692 5706 5699 5705 5721 5732 5741 5747 5751 5752 5754 5755 5753 5752 5751 5751 5750 5748 5744 5741 5739 5737 5734 5732 5728 5725 5722 5718 5716 5713 5712 5712 5711
5714 5726 5736 5741 5733 5733 5727 5706 5686 5684 5675 5683 5704 5698 5704 5728 5736 5739 5741 5743 5746 5748 5748 5747 5746 5745 5745 5744 5742 5739 5736 5733 5732 5729 5727 5724 5722 5719 5716 5714 5711 5709 5708 5707
5695 5699 5725 5733 5729 5720 5715 5706 5682 5671 5669 5679 5694 5691 5709 5730 5735 5737 5738 5738 5740 5740 5741 5742 5742 5741 5741 5739 5737 5735 5732 5729 5727 5725 5723 5720 5718 5715 5714 5712 5709 5706 5705 5705
5690 5696 5725 5733 5735 5725 5708 5699 5702 5680 5676 5672 5679 5693 5710 5724 5726 5728 5729 5730 5730 5732 5734 5735 5735 5736 5736 5734 5732 5730 5728 5726 5723 5721 5719 5716 5713 5711 5710 5709 5707 5705 5702 5702
5700 5693 5711 5723 5726 5721 5715 5702 5683 5673 5663 5662 5676 5685 5693 5709 5713 5718 5719 5720 5722 5725 5727 5728 5729 5730 5730 5728 5727 5726 5723 5721 5719 5716 5714 5712 5709 5708 5706 5705 5702 5700 5698 5697
5700 5688 5696 5705 5705 5702 5700 5694 5682 5669 5668 5661 5659 5677 5706 5707 5709 5710 5712 5714 5715 5717 5718 5720 5722 5723 5723 5722 5720 5719 5717 5715 5712 5710 5709 5707 5705 5702 5701 5699 5698 5696 5694 5693
5691 5679 5675 5689 5704 5709 5702 5693 5681 5670 5666 5663 5660 5674 5706 5705 5706 5705 5706 5708 5709 5709 5711 5712 5713 5715 5714 5714 5713 5712 5710 5709 5707 5704 5702 5700 5699 5697 5695 5694 5692 5691 5689 5688
5685 5671 5662 5669 5680 5690 5689 5687 5683 5673 5663 5656 5656 5673 5698 5698 5698 5699 5700 5700 5700 5702 5703 5704 5704 5705 5706 5706 5706 5704 5703 5703 5701 5698 5695 5693 5693 5691 5689 5689 5688 5686 5684 5682
5682 5664 5661 5660 5667 5676 5677 5679 5678 5670 5658 5657 5665 5675 5684 5685 5687 5689 5691 5692 5692 5694 5694 5694 5694 5695 5696 5698 5698 5698 5697 5695 5694 5691 5689 5688 5687 5686 5684 5683 5682 5681 5679 5677
5670 5657 5662 5667 5674 5674 5672 5673 5673 5668 5665 5661 5668 5670 5676 5678 5680 5682 5683 5684 5685 5685 5686 5686 5686 5687 5688 5689 5690 5690 5690 5689 5688 5686 5684 5683 5681 5680 5679 5677 5676 5675 5673 5672
5652 5650 5654 5655 5663 5664 5661 5664 5665 5666 5665 5663 5665 5666 5674 5675 5675 5675 5675 5676 5676 5677 5678 5679 5679 5680 5680 5682 5682 5682 5683 5683 5682 5680 5679 5677 5675 5674 5673 5672 5669 5668 5667 5666
5636 5638 5636 5635 5647 5650 5644 5652 5655 5656 5658 5659 5655 5661 5666 5666 5667 5667 5668 5668 5669 5670 5671 5671 5672 5672 5673 5674 5675 5675 5675 5675 5675 5674 5673 5670 5669 5667 5666 5666 5664 5662 5661 5660
5626 5625 5619 5621 5630 5624 5637 5651 5653 5650 5651 5654 5655 5657 5659 5660 5661 5662 5663 5662 5662 5663 5663 5664 5664 5665 5666 5667 5668 5668 5668 5667 5667 5666 5665 5664 5662 5661 5659 5657 5656 5656 5655 5654
5621 5618 5611 5608 5611 5618 5632 5640 5641 5639 5641 5647 5646 5648 5650 5651 5652 5653 5656 5656 5655 5656 5656 5656 5657 5658 5658 5659 5660 5660 5660 5659 5659 5659 5659 5658 5657 5654 5652 5651 5650 5650 5649 5647
5612 5611 5605 5602 5604 5605 5620 5633 5639 5634 5629 5640 5639 5638 5640 5641 5636 5642 5648 5648 5648 5648 5649 5649 5650 5650 5650 5651 5652 5652 5652 5651 5652 5653 5653 5652 5651 5648 5647 5646 5645 5644 5643 5641
5597 5596 5595 5595 5596 5604 5618 5627 5630 5617 5621 5631 5632 5632 5632 5631 5632 5637 5640 5640 5640 5640 5642 5642 5642 5642 5643 5643 5644 5643 5643 5643 5645 5646 5646 5646 5644 5643 5641 5640 5638 5637 5636 5635
5587 5585 5585 5586 5586 5595 5614 5616 5612 5613 5620 5623 5624 5625 5624 5626 5628 5630 5632 5633 5633 5633 5634 5635 5634 5634 5635 5635 5635 5635 5635 5636 5637 5637 5638 5638 5638 5637 5636 5633 5632 5631 5629 5627
5581 5583 5581 5583 5588 5598 5604 5606 5610 5611 5611 5614 5616 5618 5618 5619 5621 5623 5624 5626 5627 5627 5627 5627 5626 5626 5627 5627 5627 5627 5627 5628 5629 5630 5630 5630 5631 5629 5628 5627 5625 5624 5622 5621
5576 5578 5577 5579 5588 5593 5597 5600 5603 5605 5606 5608 5610 5611 5612 5612 5615 5617 5617 5618 5619 5619 5619 5619 5619 5619 5619 5621 5620 5621 5622 5622 5621 5622 5622 5623 5622 5621 5622 5620 5618 5616 5615 5614
5566 5569 5569 5572 5581 5587 5592 5593 5596 5598 5601 5603 5604 5606 5607 5608 5609 5611 5611 5611 5612 5613 5613 5613 5612 5612 5613 5614 5614 5615 5616 5616 5614 5613 5613 5613 5614 5613 5613 5611 5610 5610 5610 5610
5559 5561 5563 5568 5575 5575 5580 5587 5590 5591 5594 5597 5599 5601 5603 5603 5605 5606 5606 5607 5607 5607 5606 5606 5606 5606 5607 5608 5608 5609 5609 5609 5608 5606 5605 5606 5605 5605 5605 5604 5603 5602 5603 5603